Content
SEND FEEDBACK

Daily
Averages
Monthly
Summary
United States of America

WOODSTOCK, VERMONT


Home > North America > United States > Vermont
Elevation: 800 feet     Latitude: 43 37N     Longitude: 072 33W

WEATHER
 
SELECT A DAY
Number of Records: 215,510;   Date Range: 1/1/95 - 7/29/14
 
SHARE

PRINT THIS DATA

[ ← Previous Day ]
WEATHER ALMANAC - JANUARY 31, 2013
[ Next Day → ]
[ °C ]   °F
Weather ElementAverageHighLow
Temperature41.8 °F57.2 °F (5:17 am)24.1 °F (11:53 pm)
Dewpoint34.4 °F53.6 °F (4:32 am)9 °F (7:53 pm)
Humidity77 %96 % (2:53 am)40 % (3:53 pm)
Barometer29.18 in29.54 in (11:53 pm)28.83 in (7:53 am)
Wind Speed10.1 mph23 mph (11:53 am)
Wind Gust46 mph (8:21 am)
Weather ElementAverage
Visibility4.5 mi
Wind DirectionS (177.2 °)

Weather ElementTotal
Precipitation1.59 in
Heating Degree Days24.4 (Base 65)
Averaged from 50 records on January 31, 2013
WEATHER CONDITIONS BREAKOUT
WIND DIRECTION BREAKOUT
WEATHER BY HOUR - JANUARY 31, 2013
[ °C ]   °F
Local TimeTemperatureDewpointHumidityBarometerVisibilityWind DirectionWind SpeedGust SpeedPrecipitationEventsConditions
12:21 AM46.4 °F44.6 °F93 %29.31 in0.2 miCalm0.00 inFogFog
12:39 AM44.6 °F42.8 °F93 %29.30 in0.5 miCalm0.01 inFog-RainLight Rain
12:49 AM44.6 °F42.8 °F93 %29.28 in0.5 miNorth (10°)3.5 mph0.01 inFog-RainLight Rain
12:53 AM44.1 °F41.0 °F89 %29.30 in0.2 miCalm0.01 inFog-RainLight Rain
1:10 AM48.2 °F46.4 °F93 %29.26 in1.0 miCalm0.07 inRainRain
1:33 AM46.4 °F44.6 °F93 %29.24 in1.0 miCalm0.09 inRainLight Rain
1:40 AM46.4 °F44.6 °F93 %29.23 in0.5 miCalm0.09 inFog-RainLight Rain
1:53 AM43.0 °F41.0 °F93 %29.22 in0.8 miCalm0.10 inRainLight Rain
2:25 AM42.8 °F39.2 °F87 %29.17 in0.8 miCalm0.02 inRainLight Rain
2:53 AM42.1 °F41.0 °F96 %29.12 in0.8 miCalm0.04 inRainLight Rain
3:01 AM42.8 °F41.0 °F93 %29.10 in0.8 miCalm0.00 inRainLight Rain
3:37 AM42.8 °F39.2 °F87 %29.06 in0.8 miCalm0.01 inRainLight Rain
3:53 AM42.1 °F41.0 °F96 %29.02 in0.8 miCalm0.02 inRainLight Rain
4:07 AM44.6 °F42.8 °F93 %28.98 in1.0 miCalm0.00 inRainLight Rain
4:14 AM53.6 °F50.0 °F88 %28.96 in3.0 miSouth (190°)17.3 mph25.3 mph0.01 inRainLight Rain
4:32 AM55.4 °F53.6 °F94 %28.94 in5.0 miSSW (200°)16.1 mph26.5 mph0.05 inRainLight Rain
4:53 AM57.0 °F53.1 °F87 %28.92 in4.0 miSSW (200°)17.3 mph35.7 mph0.08 inRainRain
5:17 AM57.2 °F53.6 °F88 %28.93 in4.0 miSSW (200°)19.6 mph29.9 mph0.07 inRainRain
5:26 AM57.2 °F53.6 °F88 %28.93 in5.0 miSSW (200°)15.0 mph25.3 mph0.09 inRainRain
5:35 AM57.2 °F53.6 °F88 %28.94 in2.5 miSW (220°)8.1 mph20.7 mph0.16 inRainHeavy Rain
5:49 AM55.4 °F53.6 °F94 %28.90 in7.0 miSouth (170°)6.9 mph0.19 inRainLight Rain
5:50 AM55.9 °F53.1 °F90 %28.89 in7.0 miSSE (160°)6.9 mph0.19 inRainLight Rain
6:53 AM55.9 °F52.0 °F87 %28.88 in5.0 miSouth (180°)11.5 mph0.06 inRainLight Rain
7:53 AM55.0 °F51.1 °F86 %28.83 in9.0 miSW (220°)10.4 mph0.01 inOvercast
7:59 AM55.4 °F51.8 °F88 %28.85 in2.5 miSW (230°)15.0 mph24.2 mph0.03 inRainLight Rain
8:07 AM53.6 °F48.2 °F82 %28.87 in4.0 miSSW (210°)19.6 mph28.8 mph0.04 inRainLight Rain
8:21 AM50.0 °F39.2 °F66 %28.90 in9.0 miWest (270°)19.6 mph46.0 mph0.04 inRainLight Rain
8:28 AM48.2 °F39.2 °F71 %28.92 in10.0 miWSW (250°)15.0 mph36.8 mph0.04 inRainLight Rain
8:53 AM46.9 °F35.1 °F63 %28.95 in10.0 miSW (220°)17.3 mph28.8 mph0.04 inOvercast
9:53 AM44.1 °F32.0 °F63 %29.03 in10.0 miSW (230°)15.0 mph23.0 mph0.00 inOvercast
10:53 AM42.1 °F30.9 °F65 %29.07 in10.0 miWSW (240°)15.0 mph31.1 mph0.00 inMostly Cloudy
11:53 AM39.9 °F24.1 °F53 %29.11 in10.0 miWest (270°)23.0 mph39.1 mphOvercast
12:53 PM37.9 °F21.0 °F51 %29.15 in10.0 miWest (260°)20.7 mph40.3 mphOvercast
1:53 PM37.0 °F18.0 °F46 %29.19 in10.0 miWest (260°)20.7 mph28.8 mphOvercast
2:53 PM36.0 °F15.1 °F43 %29.25 in10.0 miWest (270°)16.1 mph24.2 mphOvercast
3:53 PM35.1 °F12.9 °F40 %29.29 in10.0 miWSW (250°)18.4 mph33.4 mphOvercast
4:53 PM34.0 °F12.0 °F40 %29.31 in10.0 miWSW (240°)16.1 mph25.3 mphOvercast
5:53 PM32.0 °F12.0 °F44 %29.38 in10.0 miWSW (240°)16.1 mph32.2 mphOvercast
7:53 PM30.9 °F9.0 °F40 %29.43 in10.0 miWSW (240°)17.3 mph25.3 mphOvercast
8:53 PM30.0 °F9.0 °F41 %29.46 in10.0 miWSW (250°)19.6 mph31.1 mphOvercast
9:53 PM28.9 °F10.0 °F45 %29.48 in9.0 miWest (270°)21.9 mph28.8 mphOvercast
10:27 PM26.6 °F19.4 °F74 %29.49 in1.5 miNW (310°)6.9 mph0.00 inSnowLight Snow
10:32 PM26.6 °F21.2 °F80 %29.49 in0.8 miNW (310°)5.8 mph0.00 inSnowLight Snow
10:42 PM24.8 °F21.2 °F86 %29.49 in1.0 miNW (310°)8.1 mph0.00 inSnowLight Snow
10:47 PM24.8 °F21.2 °F86 %29.49 in0.8 miNW (310°)6.9 mph0.01 inSnowLight Snow
10:53 PM25.0 °F21.0 °F85 %29.52 in0.8 miWNW (290°)5.8 mph0.01 inSnowLight Snow
10:58 PM24.8 °F21.2 °F86 %29.50 in1.2 miNW (310°)5.8 mph0.00 inSnowLight Snow
11:13 PM24.8 °F19.4 °F80 %29.50 in1.0 miNW (310°)6.9 mph0.00 inSnowLight Snow
11:21 PM24.8 °F17.6 °F74 %29.50 in2.0 miWNW (290°)12.7 mph18.4 mph0.00 inSnowLight Snow
11:53 PM24.1 °F17.1 °F75 %29.54 in2.0 miWest (270°)9.2 mph0.00 inSnowLight Snow
Hourly data recorded from KLEB, located miles away from Woodstock, Vermont







STORIES FROM OUR PARTNERS